TimeCST,TemperatureF,Dew PointF,Humidity,Sea Level PressureIn,VisibilityMPH,Wind Direction,Wind SpeedMPH,Gust SpeedMPH,PrecipitationIn,Events,Conditions,WindDirDegrees,DateUTC
12:52 AM,55.0,53.1,93,30.22,8.0,NE,5.8,-,N/A,,Clear,40,2012-11-29 06:52:00
1:52 AM,55.9,53.1,90,30.21,8.0,NNE,3.5,-,N/A,,Clear,30,2012-11-29 07:52:00
2:52 AM,55.0,53.1,93,30.19,7.0,Calm,Calm,-,N/A,,Clear,0,2012-11-29 08:52:00
3:52 AM,54.0,52.0,93,30.18,8.0,Calm,Calm,-,N/A,,Clear,0,2012-11-29 09:52:00
4:52 AM,54.0,51.1,90,30.17,8.0,NNE,3.5,-,N/A,,Clear,20,2012-11-29 10:52:00
5:52 AM,55.9,54.0,93,30.17,8.0,NE,3.5,-,N/A,,Mostly Cloudy,40,2012-11-29 11:52:00
6:52 AM,57.0,55.0,93,30.18,9.0,NNE,4.6,-,N/A,,Clear,30,2012-11-29 12:52:00
7:52 AM,60.1,57.9,93,30.19,8.0,ENE,3.5,-,N/A,,Clear,70,2012-11-29 13:52:00
8:52 AM,68.0,61.0,78,30.19,10.0,ENE,6.9,-,N/A,,Clear,70,2012-11-29 14:52:00
9:52 AM,73.9,59.0,59,30.20,10.0,East,13.8,-,N/A,,Clear,90,2012-11-29 15:52:00
10:52 AM,77.0,59.0,54,30.19,10.0,ESE,12.7,-,N/A,,Clear,120,2012-11-29 16:52:00
11:52 AM,78.1,59.0,52,30.17,10.0,ESE,11.5,-,N/A,,Scattered Clouds,110,2012-11-29 17:52:00
12:52 PM,78.1,59.0,52,30.15,10.0,ESE,8.1,-,N/A,,Scattered Clouds,120,2012-11-29 18:52:00
1:52 PM,78.1,61.0,56,30.11,10.0,SE,9.2,-,N/A,,Mostly Cloudy,130,2012-11-29 19:52:00
2:52 PM,75.0,61.0,62,30.09,10.0,East,11.5,-,N/A,,Overcast,100,2012-11-29 20:52:00
3:52 PM,75.0,61.0,62,30.09,10.0,ESE,10.4,-,N/A,,Overcast,110,2012-11-29 21:52:00
4:52 PM,73.9,61.0,64,30.09,10.0,East,10.4,-,N/A,,Overcast,90,2012-11-29 22:52:00
5:52 PM,73.0,62.1,68,30.09,10.0,ESE,10.4,-,N/A,,Overcast,110,2012-11-29 23:52:00
6:52 PM,72.0,63.0,73,30.10,10.0,East,8.1,-,N/A,,Overcast,90,2012-11-30 00:52:00
7:52 PM,72.0,63.0,73,30.13,10.0,ENE,4.6,-,N/A,,Overcast,60,2012-11-30 01:52:00
8:52 PM,71.1,63.0,75,30.13,10.0,Calm,Calm,-,N/A,,Mostly Cloudy,0,2012-11-30 02:52:00
9:52 PM,70.0,64.0,81,30.13,10.0,Calm,Calm,-,N/A,,Overcast,0,2012-11-30 03:52:00
10:52 PM,69.1,63.0,81,30.13,10.0,ESE,3.5,-,N/A,,Mostly Cloudy,120,2012-11-30 04:52:00
11:52 PM,68.0,64.0,87,30.12,10.0,East,3.5,-,N/A,,Overcast,90,2012-11-30 05:52:00